TimeMST,TemperatureF,Dew PointF,Humidity,Sea Level PressureIn,VisibilityMPH,Wind Direction,Wind SpeedMPH,Gust SpeedMPH,PrecipitationIn,Events,Conditions,WindDirDegrees,DateUTC
12:53 AM,21.9,5.0,48,29.85,10.0,WSW,6.9,-,N/A,,Clear,240,2013-01-08 07:53:00
1:53 AM,19.9,3.9,50,29.84,10.0,West,12.7,-,N/A,,Clear,270,2013-01-08 08:53:00
2:53 AM,21.9,5.0,48,29.83,10.0,West,12.7,-,N/A,,Clear,260,2013-01-08 09:53:00
3:53 AM,18.0,3.0,52,29.82,10.0,West,10.4,-,N/A,,Clear,260,2013-01-08 10:53:00
5:53 AM,19.0,5.0,54,29.84,10.0,West,13.8,-,N/A,,Clear,270,2013-01-08 12:53:00
6:53 AM,12.0,1.9,64,29.91,10.0,NW,9.2,-,N/A,,Clear,310,2013-01-08 13:53:00
7:53 AM,21.9,6.1,51,29.94,10.0,West,6.9,-,N/A,,Clear,270,2013-01-08 14:53:00
8:53 AM,30.0,7.0,38,29.95,10.0,WSW,9.2,-,N/A,,Clear,240,2013-01-08 15:53:00
9:53 AM,37.0,8.1,30,29.96,10.0,NW,8.1,-,N/A,,Clear,310,2013-01-08 16:53:00
10:53 AM,44.1,8.1,23,29.95,10.0,West,3.5,-,N/A,,Clear,270,2013-01-08 17:53:00
11:53 AM,50.0,9.0,19,29.96,10.0,Calm,Calm,-,N/A,,Clear,0,2013-01-08 18:53:00
12:53 PM,51.1,12.0,21,29.95,10.0,East,4.6,-,N/A,,Clear,90,2013-01-08 19:53:00
1:53 PM,53.1,15.1,22,29.96,10.0,ESE,10.4,-,N/A,,Clear,120,2013-01-08 20:53:00
2:53 PM,54.0,17.1,23,29.99,10.0,ESE,11.5,-,N/A,,Clear,120,2013-01-08 21:53:00
3:53 PM,53.1,17.1,24,30.04,10.0,East,10.4,-,N/A,,Clear,100,2013-01-08 22:53:00
4:53 PM,46.9,16.0,29,30.10,10.0,East,5.8,-,N/A,,Clear,80,2013-01-08 23:53:00
5:53 PM,39.0,15.1,38,30.16,10.0,East,9.2,-,N/A,,Clear,90,2013-01-09 00:53:00
6:53 PM,39.9,16.0,38,30.21,10.0,ESE,3.5,-,N/A,,Clear,110,2013-01-09 01:53:00
7:53 PM,39.0,18.0,43,30.21,10.0,Calm,Calm,-,N/A,,Clear,0,2013-01-09 02:53:00
8:53 PM,30.0,15.1,54,30.24,10.0,WSW,4.6,-,N/A,,Clear,250,2013-01-09 03:53:00
9:53 PM,28.9,14.0,54,30.25,10.0,WSW,4.6,-,N/A,,Clear,240,2013-01-09 04:53:00
10:53 PM,25.0,12.0,58,30.27,10.0,NW,6.9,-,N/A,,Clear,310,2013-01-09 05:53:00
11:53 PM,26.1,14.0,60,30.27,10.0,WNW,5.8,-,N/A,,Clear,290,2013-01-09 06:53:00